{"data":{"norad_id":64516,"intl_designator":"2025-134S","name":"KUIPER-00056","alt_names":[],"object_type":"PAYLOAD","status":"ACTIVE","operator":null,"country":"US","launch_date":"2025-06-23","launch_site_code":"AFETR","launch_vehicle":null,"mission":null,"orbit_class":"UNKNOWN","rcs_meters":null,"size_class":null,"mass_kg":null,"dimensions":null,"purposes":[],"wikipedia_slug":null,"has_3d_model":false,"image_url":null,"decayed_at":null,"tle_current":{"epoch":"2026-05-24T23:36:19.858752Z","epoch_age_seconds":73653,"freshness":"FRESH","line1":"1 64516U 25134S   26144.98356318  .00000275  00000+0  65111-4 0  9998","line2":"2 64516  51.9002 245.7594 0000310 105.7956 254.3041 14.79933647 51518","mean_motion":14.79933647,"eccentricity":3.1e-5,"inclination_deg":51.9002,"raan_deg":245.7594,"arg_perigee_deg":105.7956,"mean_anomaly_deg":254.3041,"bstar":6.5111e-5,"rev_number":5151,"period_min":97.301659633123,"perigee_km":629.31634896887,"apogee_km":629.75082454525,"semimajor_km":7007.6705867571,"source":"CELESTRAK","updated_at":"2026-05-25T13:38:04.575572Z"}}}